Weather History for MNMG - October, 2012

Change the Weather History Date:

Wednesday, October 17, 2012

  Actual Average Record
Temperature  
Mean Temperature 81 °F -  
Max Temperature 89 °F 86 °F 91 °F (2000)
Min Temperature 73 °F 70 °F 71 °F (1996)
Cooling Degree Days 16    
Growing Degree Days 31 (Base 50)    
Moisture  
Dew Point 74 °F    
Average Humidity 79    
Maximum Humidity 94    
Minimum Humidity 59    
Precipitation  
Precipitation 0.00 in - - ()
Sea Level Pressure  
Sea Level Pressure 29.81 in    
Wind  
Wind Speed 3 mph ()    
Max Wind Speed 14 mph    
Max Gust Speed -    
Visibility 5.2 miles    
Events Thunderstorm    
Averages and records for this station are not official NWS values.
T = Trace of Precipitation, MM = Missing Value Source: Averaged Metar Reports

Daily Weather History Graph

Daily Weather History Graph

Search for Another Location

Airport or City:

Trip Planner

Search our weather history database for the weather conditions in past years. The results will help you decide how hot, cold, wet, or windy it might be!

Date:

Astronomy

Oct. 17, 2012 Rise Set
Actual Time 5:34 AM CST 5:24 PM CST
Civil Twilight 5:13 AM CST 5:46 PM CST
Nautical Twilight 4:48 AM CST 6:11 PM CST
Astronomical Twilight 4:23 AM CST 6:35 PM CST
Moon 7:39 AM CST (10/17) 7:31 PM CST (10/17)
Length of Visible Light 12h 32m
Length of Day
11h 50m
Waxing Crescent, 7% of the Moon is Illuminated
Oct 17
Waxing Crescent
Oct 21
First Quarter
Oct 29
Full
Nov 6
Last Quarter
Nov 13
New

Hourly Weather History & Observations

Time (CST) Temp. Heat Index Dew Point Humidity Pressure Visibility Wind Dir Wind Speed Gust Speed Precip Events Conditions
12:00 AM 77.0 °F - 73.4 °F 89% 29.83 in 4.3 mi SE 4.6 mph - N/A   Scattered Clouds
1:00 AM 77.0 °F - 73.4 °F 89% 29.83 in 5.0 mi Calm Calm - N/A   Partly Cloudy
2:00 AM 75.2 °F - 71.6 °F 89% 29.80 in 5.0 mi Calm Calm - N/A   Partly Cloudy
3:00 AM 75.2 °F - 71.6 °F 89% 29.80 in 5.0 mi Calm Calm - N/A   Partly Cloudy
4:00 AM 73.4 °F - 71.6 °F 94% 29.80 in 4.3 mi ESE 4.6 mph - N/A   Partly Cloudy
5:00 AM 75.2 °F - 71.6 °F 89% 29.83 in 4.3 mi Calm Calm - N/A   Scattered Clouds
6:00 AM 73.4 °F - 71.6 °F 94% 29.80 in 5.0 mi Calm Calm - N/A   Partly Cloudy
7:00 AM 78.8 °F - 73.4 °F 83% 29.86 in 5.0 mi West 4.6 mph - N/A Thunderstorm Light Thunderstorm
8:00 AM 80.6 °F 86.2 °F 75.2 °F 84% 29.86 in 5.6 mi NW 6.9 mph - N/A   Partly Cloudy
9:00 AM 82.4 °F 89.5 °F 75.2 °F 79% 29.86 in 5.6 mi NW 9.2 mph - N/A   Partly Cloudy
10:00 AM 82.4 °F 89.5 °F 75.2 °F 79% 29.86 in 5.6 mi NW 4.6 mph - N/A   Partly Cloudy
11:00 AM 86.0 °F 95.1 °F 75.2 °F 70% 29.86 in 5.6 mi NNW 6.9 mph - N/A   Partly Cloudy
12:00 PM 86.0 °F 95.1 °F 75.2 °F 70% 29.83 in 5.6 mi NNW 9.2 mph - N/A   Partly Cloudy
1:00 PM 87.8 °F 97.6 °F 75.2 °F 66% 29.77 in 5.6 mi NW 6.9 mph - N/A   Partly Cloudy
2:00 PM 89.6 °F 99.8 °F 75.2 °F 62% 29.74 in 5.6 mi NNW 4.6 mph - N/A   Partly Cloudy
3:00 PM 87.8 °F 95.6 °F 73.4 °F 62% 29.74 in 5.6 mi WNW 4.6 mph - N/A   Partly Cloudy
4:00 PM 89.6 °F 98.2 °F 73.4 °F 59% 29.74 in 5.6 mi West 13.8 mph - N/A   Partly Cloudy
5:00 PM 86.0 °F 93.4 °F 73.4 °F 66% 29.74 in 5.6 mi WSW 9.2 mph - N/A   Partly Cloudy
6:00 PM 84.2 °F 90.9 °F 73.4 °F 70% 29.77 in 5.6 mi West 6.9 mph - N/A   Scattered Clouds
7:00 PM 82.4 °F 88.2 °F 73.4 °F 74% 29.80 in 5.6 mi Calm Calm - N/A   Scattered Clouds
8:00 PM 78.8 °F - 73.4 °F 83% 29.83 in 5.0 mi SW 4.6 mph - N/A   Scattered Clouds
9:00 PM 78.8 °F - 73.4 °F 83% 29.86 in 5.0 mi South 4.6 mph - N/A   Scattered Clouds
10:00 PM 77.0 °F - 73.4 °F 89% 29.83 in 5.0 mi Calm Calm - N/A   Scattered Clouds
11:00 PM 77.0 °F - 73.4 °F 89% 29.86 in 5.0 mi Calm Calm - N/A   Scattered Clouds